Date String (YYYY-MM-DD hh:mm:ss) UTC,Instrument flags,Ambient pressure (hPa),Sample flow (lpm),Bypass flow (lpm),Sample temperature (°C),Ambient temperature (°C),ASC tube jacket temperature (°C),LED temperature (°C),Box temperature (°C),Sample RH (%),Span deviation,Mass concentration (μg/m³),Mass concentration (μg/m³),Mass concentration (μg/m³)
DateTimeUTC,F1_M11,P_M11,Q1_M11,Q2_M11,T1_M11,T2_M11,T3_M11,T4_M11,T5_M11,U1_M11,ZSPAN_M11,X0_M11,X2_M11,X1_M11
2021-10-30 19:00:00,,0825.1,5.01,0.00,30.3,29.3,00.0,39.3,32.1,10.3,0000.0,0022.57,0004.87,0003.39
2021-10-30 19:01:00,,0825.0,5.00,0.00,30.4,29.4,00.0,39.3,32.2,10.3,0000.0,0022.02,0004.78,0003.31
2021-10-30 19:02:00,,0824.9,5.00,0.00,30.4,29.5,00.0,39.3,32.2,10.2,0000.0,0020.98,0004.67,0003.25
2021-10-30 19:03:00,,0825.0,5.00,0.00,30.4,29.6,00.0,39.3,32.2,10.3,0000.0,0020.54,0004.57,0003.18
2021-10-30 19:04:00,,0824.9,5.01,0.00,30.4,29.6,00.0,39.3,32.3,10.2,0000.0,0020.57,0004.41,0003.12
2021-10-30 19:05:00,,0824.9,5.00,0.00,30.5,29.7,00.0,39.3,32.3,10.2,0000.0,0020.66,0004.32,0003.04
2021-10-30 19:06:00,,0824.9,5.00,0.00,30.5,29.7,00.0,39.4,32.3,10.3,0000.0,0020.87,0004.28,0002.94
2021-10-30 19:07:00,,0824.9,5.01,0.00,30.5,29.8,00.0,39.4,32.4,10.3,0000.0,0020.91,0004.20,0002.84
2021-10-30 19:08:00,,0824.9,4.99,0.00,30.6,29.8,00.0,39.4,32.4,10.1,0000.0,0020.86,0004.16,0002.78
2021-10-30 19:09:00,,0824.9,4.99,0.00,30.6,29.9,00.0,39.5,32.4,10.0,0000.0,0021.14,0004.15,0002.76
2021-10-30 19:10:00,,0825.0,5.01,0.00,30.6,29.9,00.0,39.5,32.5,10.0,0000.0,0020.85,0004.11,0002.72
2021-10-30 19:11:00,,0824.9,4.99,0.00,30.7,29.9,00.0,39.5,32.5,10.1,0000.0,0019.05,0004.10,0002.69
2021-10-30 19:12:00,,0825.0,5.00,0.00,30.7,30.0,00.0,39.5,32.5,10.1,0000.0,0019.37,0004.11,0002.68
2021-10-30 19:13:00,,0825.1,5.00,0.00,30.7,30.0,00.0,39.6,32.5,10.1,0000.0,0019.37,0004.13,0002.69
2021-10-30 19:14:00,,0825.1,5.01,0.00,30.7,29.9,00.0,39.6,32.5,09.9,0000.0,0018.91,0004.11,0002.70
2021-10-30 19:15:00,,0825.1,5.01,0.00,30.7,28.0,00.0,39.6,32.1,10.0,0000.0,0018.47,0004.15,0002.73
2021-10-30 19:16:00,,0825.1,4.99,0.00,30.5,26.2,00.0,39.6,31.7,10.3,0000.0,0017.72,0004.12,0002.75
2021-10-30 19:17:00,,0825.1,5.00,0.00,30.4,26.3,00.0,39.5,31.7,10.4,0000.0,0017.45,0004.13,0002.78
2021-10-30 19:18:00,,0825.1,5.00,0.00,30.3,26.7,00.0,39.4,31.7,10.3,0000.0,0016.79,0004.10,0002.82
2021-10-30 19:19:00,,0825.1,5.01,0.00,30.2,27.2,00.0,39.4,31.8,10.4,0000.0,0015.71,0004.08,0002.83
2021-10-30 19:20:00,,0825.2,4.99,0.00,30.2,27.7,00.0,39.3,31.8,10.3,0000.0,0015.85,0004.05,0002.81
2021-10-30 19:21:00,,0825.1,5.00,0.00,30.2,28.1,00.0,39.3,31.9,10.3,0000.0,0014.65,0004.05,0002.82
2021-10-30 19:22:00,,0825.2,5.00,0.00,30.2,28.4,00.0,39.3,31.9,10.1,0000.0,0014.50,0004.05,0002.84
2021-10-30 19:23:00,,0825.2,5.01,0.00,30.2,28.7,00.0,39.3,32.0,10.0,0000.0,0014.14,0004.01,0002.86
2021-10-30 19:24:00,,0825.2,5.00,0.00,30.2,28.9,00.0,39.3,32.0,10.0,0000.0,0014.03,0003.97,0002.86
2021-10-30 19:25:00,,0825.2,4.99,0.00,30.3,29.0,00.0,39.3,32.0,10.2,0000.0,0014.03,0004.00,0002.87
2021-10-30 19:26:00,,0825.2,5.00,0.00,30.3,29.2,00.0,39.3,32.1,10.2,0000.0,0014.93,0003.97,0002.85
2021-10-30 19:27:00,,0825.2,5.01,0.00,30.3,29.3,00.0,39.3,32.1,10.1,0000.0,0015.27,0004.02,0002.85
2021-10-30 19:28:00,,0825.2,5.01,0.00,30.4,29.4,00.0,39.3,32.2,10.1,0000.0,0015.55,0004.02,0002.87
2021-10-30 19:29:00,,0825.2,4.98,0.00,30.4,29.4,00.0,39.3,32.2,10.2,0000.0,0016.10,0004.04,0002.88
2021-10-30 19:30:00,,0825.3,4.99,0.00,30.4,29.5,00.0,39.3,32.2,10.2,0000.0,0015.94,0004.08,0002.89
2021-10-30 19:31:00,,0825.3,5.00,0.00,30.5,29.6,00.0,39.4,32.3,10.2,0000.0,0014.90,0004.12,0002.95
2021-10-30 19:32:00,,0825.3,5.00,0.00,30.5,29.6,00.0,39.4,32.3,10.2,0000.0,0015.26,0004.13,0002.96
2021-10-30 19:33:00,,0825.3,5.00,0.00,30.5,29.7,00.0,39.4,32.4,10.1,0000.0,0015.34,0004.16,0002.98
2021-10-30 19:34:00,,0825.3,5.00,0.00,30.5,29.7,00.0,39.4,32.4,10.1,0000.0,0014.96,0004.18,0002.98
2021-10-30 19:35:00,,0825.3,5.00,0.00,30.6,29.8,00.0,39.4,32.4,10.0,0000.0,0014.82,0004.20,0002.98
2021-10-30 19:36:00,,0825.3,4.99,0.00,30.6,29.8,00.0,39.5,32.4,10.0,0000.0,0014.71,0004.19,0002.99
2021-10-30 19:37:00,,0825.3,5.00,0.00,30.6,29.6,00.0,39.5,32.4,10.0,0000.0,0013.93,0004.25,0003.02
2021-10-30 19:38:00,,0825.3,5.01,0.00,30.6,27.6,00.0,39.5,32.0,10.1,0000.0,0013.08,0004.22,0003.03
2021-10-30 19:39:00,,0825.3,5.00,0.00,30.4,25.9,00.0,39.4,31.6,10.1,0000.0,0012.45,0004.21,0003.04
2021-10-30 19:40:00,,0825.3,5.00,0.00,30.3,26.1,00.0,39.4,31.6,10.1,0000.0,0012.25,0004.18,0003.04
2021-10-30 19:41:00,,0825.3,4.99,0.00,30.2,26.5,00.0,39.3,31.6,10.4,0000.0,0013.20,0004.14,0003.03
2021-10-30 19:42:00,,0825.3,5.00,0.00,30.1,27.1,00.0,39.3,31.7,10.4,0000.0,0013.02,0004.13,0002.97
2021-10-30 19:43:00,,0825.3,4.99,0.00,30.1,27.5,00.0,39.2,31.7,10.4,0000.0,0012.35,0004.12,0002.97
2021-10-30 19:44:00,,0825.3,5.01,0.00,30.1,27.9,00.0,39.2,31.7,10.3,0000.0,0012.14,0004.09,0002.99
2021-10-30 19:45:00,,0825.3,5.00,0.00,30.1,28.1,00.0,39.2,31.8,10.3,0000.0,0011.85,0004.04,0003.00
2021-10-30 19:46:00,,0825.3,5.01,0.00,30.1,28.4,00.0,39.2,31.8,10.4,0000.0,0012.15,0004.03,0003.03
2021-10-30 19:47:00,,0825.2,5.00,0.00,30.1,28.6,00.0,39.2,31.9,10.5,0000.0,0013.01,0004.04,0003.06
2021-10-30 19:48:00,,0825.2,5.00,0.00,30.1,28.8,00.0,39.2,31.9,10.4,0000.0,0013.15,0004.00,0003.09
2021-10-30 19:49:00,,0825.2,5.00,0.00,30.2,28.9,00.0,39.2,32.0,10.5,0000.0,0013.49,0003.98,0003.12
2021-10-30 19:50:00,,0825.3,4.99,0.00,30.2,29.0,00.0,39.2,32.0,10.3,0000.0,0014.10,0003.96,0003.13
2021-10-30 19:51:00,,0825.3,5.00,0.00,30.2,29.1,00.0,39.2,32.0,10.2,0000.0,0014.55,0004.01,0003.15
2021-10-30 19:52:00,,0825.3,4.99,0.00,30.2,29.2,00.0,39.2,32.1,10.2,0000.0,0013.43,0004.03,0003.17
2021-10-30 19:53:00,,0825.3,5.01,0.00,30.3,29.3,00.0,39.2,32.1,10.1,0000.0,0013.38,0004.05,0003.20
2021-10-30 19:54:00,,0825.4,4.99,0.00,30.3,29.4,00.0,39.2,32.1,10.3,0000.0,0013.73,0004.07,0003.21
2021-10-30 19:55:00,,0825.3,5.00,0.00,30.4,29.4,00.0,39.2,32.2,10.4,0000.0,0013.93,0004.06,0003.19
2021-10-30 19:56:00,,0825.3,5.01,0.00,30.4,29.5,00.0,39.3,32.2,10.3,0000.0,0013.90,0004.07,0003.18
2021-10-30 19:57:00,,0825.3,4.99,0.00,30.4,29.6,00.0,39.3,32.2,10.3,0000.0,0013.81,0004.08,0003.18
2021-10-30 19:58:00,,0825.3,5.00,0.00,30.4,29.6,00.0,39.3,32.3,10.3,0000.0,0012.70,0004.09,0003.17
2021-10-30 19:59:00,,0825.3,5.01,0.00,30.5,29.6,00.0,39.3,32.3,10.1,0000.0,0012.15,0004.10,0003.16
